This demonstration page uses our WeatherBlox Daily Observations layout. Learn more.

38.80484, -77.04692

Hourly Observations for August 18, 2019

Temp ( °F °C ) Dew Point ( °F °C ) Humidity (%) Winds ( mph kmh ) Pressure ( in mb ) Visibility ( mi km ) Precip ( " mm )
12:52 am 00:52 Mostly Cloudy 80 26.7 72 22.2 76 76 S 6 9 29.94 1014 10 16.09344 0 0
1:52 am 01:52 Mostly Cloudy 78 25.6 74 23.3 87 87 SSW 7 11 29.94 1014 10 16.09344 0 0
2:52 am 02:52 Mostly Cloudy 78 25.6 74 23.3 87 87 SW 5 7 29.97 1015 10 16.09344 0 0
3:52 am 03:52 Mostly Cloudy 77 25 74 23.3 90 90 S 5 7 29.94 1014 10 16.09344 0 0
4:52 am 04:52 Mostly Cloudy 77 25 73 22.8 88 88 SSW 6 9 29.94 1014 10 16.09344 0 0
5:52 am 05:52 Partly Cloudy 76 24.4 73 22.8 91 91 S 8 13 29.97 1015 10 16.09344 0 0
6:52 am 06:52 Mostly Sunny 76 24.4 73 22.8 91 91 S 6 9 29.97 1015 10 16.09344 0 0
7:52 am 07:52 Partly Cloudy 77 25 73 22.8 88 88 S 8 13 30 1016 10 16.09344 0 0
8:52 am 08:52 Partly Cloudy 80 26.7 73 22.8 79 79 SE 6 9 30 1016 10 16.09344 0 0
9:52 am 09:52 Mostly Sunny 82 27.8 73 22.8 74 74 ESE 3 6 30 1016 10 16.09344 0 0
10:52 am 10:52 Partly Cloudy 85 29.4 73 22.8 68 68 SSE 6 9 30 1016 10 16.09344 0 0
11:52 am 11:52 Partly Cloudy 89 31.7 73 22.8 59 59 S 6 9 30 1016 10 16.09344 0 0
12:52 pm 12:52 Partly Cloudy 92 33.3 69 20.6 47 47 S 7 11 30 1016 10 16.09344 0 0
1:52 pm 13:52 Partly Cloudy 92 33.3 69 20.6 47 47 SSE 7 11 29.97 1015 10 16.09344 0 0
2:04 pm 14:04 Partly Cloudy 94 34.4 71 21.7 48 48 SSE 9 15 29.97 1015 10 16.09344 0 0
2:42 pm 14:42 Partly Cloudy 94 34.4 72 22.2 49 49 SE 16 26 29.97 1015 10 16.09344 0 0
2:52 pm 14:52 Partly Cloudy with Thunderstorms 92 33.3 71 21.7 51 51 ESE 10 17 29.97 1015 10 16.09344 0 0
2:57 pm 14:57 Partly Cloudy with Thunderstorms 91 32.8 71 21.7 52 52 ESE 9 15 29.97 1015 10 16.09344 0 0
3:27 pm 15:27 Partly Cloudy 86 30 73 22.8 65 65 E 9 15 29.97 1015 10 16.09344 0 0
3:52 pm 15:52 Partly Cloudy 92 33.3 73 22.8 54 54 ESE 9 15 29.94 1014 10 16.09344 0 0
4:52 pm 16:52 Partly Cloudy 95 35 70 21.1 44 44 S 8 13 29.94 1014 10 16.09344 0 0
5:52 pm 17:52 Partly Cloudy 91 32.8 72 22.2 54 54 SSE 10 17 29.94 1014 10 16.09344 0 0
6:52 pm 18:52 Partly Cloudy 91 32.8 71 21.7 52 52 S 12 19 29.91 1013 10 16.09344 0 0
7:52 pm 19:52 Partly Cloudy 88 31.1 70 21.1 55 55 S 8 13 29.94 1014 10 16.09344 0 0
8:52 pm 20:52 Partly Cloudy 86 30 73 22.8 65 65 S 5 7 29.94 1014 10 16.09344 0 0
9:52 pm 21:52 Partly Cloudy 85 29.4 69 20.6 59 59 SSE 6 9 30 1016 10 16.09344 0 0
10:52 pm 22:52 Mostly Cloudy 83 28.3 67 19.4 59 59 NNE 9 15 29.97 1015 10 16.09344 0 0
11:52 pm 23:52 Partly Cloudy 81 27.2 65 18.3 58 58 Calm 29.94 1014 10 16.09344 0 0

Powered by AerisWeather